Location: Ahausen
(50.4985°N, 8.2722°E)
Time: 11:32:57
(UTC+00:00)

CZ-2C R/B - Pass Details

Date: 18 September 2020
Orbit: 640 x 704 km, 98.4° (Epoch: 30 October)

Event Time Altitude Azimuth Distance (km) Brightness Sun altitude
Rises 19:58:09 0° 14° (NNE) 2,963 7.3 -22.6°
Reaches altitude 10° 20:00:21 10° 15° (NNE) 2,052 6.4 -22.9°
Maximum altitude 20:04:50 87° 105° (ESE) 657 3.5 -23.4°
Enters shadow 20:05:29 65° 188° (S) 718 3.6 -23.5°
